This demonstration page uses our WeatherBlox Daily Observations layout. Learn more.

Left ArrowRight Arrow

39.12711, -84.51439

Hourly Observations for November 4, 2020

Temp ( °F °C ) Dew Point ( °F °C ) Humidity (%) Winds ( mph kmh ) Pressure ( in mb ) Visibility ( mi km ) Precip ( " mm )
12:53 am 00:53 Clear 38 3.3 36 2.2 93 93 Calm 30.27 1025 10 16 0.00 0.00
1:53 am 01:53 Clear 36 2.2 35 1.7 97 97 Calm 30.28 1025 8 13 0.00 0.00
2:07 am 02:07 Clear with Mist and Fog 35 1.7 34 1.1 96 96 Calm 30.31 1027 2 3 0.00 0.00
2:16 am 02:16 Clear with Mist and Fog 36 2.2 35 1.7 97 97 Calm 30.31 1027 4 6 0.00 0.00
2:53 am 02:53 Clear 35 1.7 33 0.6 93 93 Calm 30.29 1026 8 13 0.00 0.00
3:06 am 03:06 Clear with Mist and Fog 35 1.7 33 0.6 93 93 Calm 30.31 1027 2 3 0.00 0.00
3:22 am 03:22 Clear with Mist and Fog 34 1.1 32 0 92 92 Calm 30.32 1027 3 5 0.00 0.00
3:53 am 03:53 Clear with Mist and Fog 36 2.2 35 1.7 97 97 Calm 30.29 1026 4 6 0.00 0.00
4:53 am 04:53 Clear 35 1.7 33 0.6 93 93 Calm 30.30 1026 8 13 0.00 0.00
5:53 am 05:53 Clear with Mist and Fog 35 1.7 34 1.1 96 96 Calm 30.32 1027 5 8 0.00 0.00
6:08 am 06:08 Clear with Mist and Fog 35 1.7 34 1.1 96 96 Calm 30.34 1028 2 3 0.00 0.00
6:20 am 06:20 Clear with Mist and Fog 35 1.7 34 1.1 96 96 Calm 30.34 1028 3 5 0.00 0.00
6:53 am 06:53 Clear with Mist and Fog 34 1.1 32 0 92 92 Calm 30.33 1027 6 10 0.00 0.00
7:53 am 07:53 Sunny with Patchy Fog 36 2.2 35 1.7 97 97 Calm 30.35 1028 10 16 0.00 0.00
8:53 am 08:53 Sunny with Patchy Fog 47 8.3 40 4.4 77 77 Calm 30.36 1028 10 16 0.00 0.00
9:53 am 09:53 Sunny 53 11.7 39 3.9 59 59 SSW 7 11 30.36 1028 10 16 0.00 0.00
10:53 am 10:53 Sunny 60 15.6 41 5 50 50 S 7 11 30.35 1028 10 16 0.00 0.00
11:53 am 11:53 Sunny 65 18.3 41 5 42 42 S 12 19 30.33 1027 10 16 0.00 0.00
12:53 pm 12:53 Sunny 70 21.1 40 4.4 34 34 SSW 15 24 30.30 1026 10 16 0.00 0.00
1:53 pm 13:53 Sunny 72 22.2 40 4.4 31 31 SSW 12 19 30.28 1026 10 16 0.00 0.00
2:53 pm 14:53 Sunny 71 21.7 40 4.4 32 32 SSW 12 19 30.27 1025 10 16 0.00 0.00
3:53 pm 15:53 Sunny 70 21.1 41 5 35 35 S 13 20 30.27 1025 10 16 0.00 0.00
4:53 pm 16:53 Sunny 67 19.4 41 5 39 39 SSW 12 19 30.27 1025 10 16 0.00 0.00
5:53 pm 17:53 Clear 60 15.6 40 4.4 47 47 S 7 11 30.28 1025 10 16 0.00 0.00
6:53 pm 18:53 Clear 57 13.9 41 5 55 55 S 5 7 30.29 1026 10 16 0.00 0.00
7:53 pm 19:53 Clear 55 12.8 41 5 59 59 SW 5 7 30.30 1026 10 16 0.00 0.00
8:53 pm 20:53 Clear 51 10.6 41 5 69 69 WSW 3 6 30.31 1026 10 16 0.00 0.00
9:53 pm 21:53 Clear 47 8.3 41 5 80 80 Calm 30.31 1026 10 16 0.00 0.00
10:53 pm 22:53 Clear 46 7.8 42 5.6 86 86 Calm 30.32 1027 10 16 0.00 0.00
11:53 pm 23:53 Clear 43 6.1 39 3.9 86 86 Calm 30.31 1027 10 16 0.00 0.00

Powered by AerisWeather